"Time","Temp","Dewpoint","Humidity","Pressure","Direction","Speed","Gust","Precip","PrecipRate"
"00:04:57","69.4","61.9","77","30.10","172","2.5","6","0.00","0.00"
"00:09:56","69.3","62.1","77.9","30.10","155","2.3","6","0.00","0.00"
"00:14:58","69.2","62","78","30.10","160","2.4","9","0.00","0.00"
"00:19:58","69.2","62","78","30.10","162","3.4","9.2","0.00","0.00"
"00:24:59","69.2","62.2","78.6","30.10","174","2.9","6","0.00","0.00"
"00:29:56","69.2","62.2","78.5","30.10","161","2.7","7","0.00","0.00"
"00:34:57","69.2","62.4","79","30.09","147","3.5","7","0.00","0.00"
"00:39:56","69","62.6","79.9","30.09","135","2.2","6","0.00","0.00"
"00:44:56","68.9","62.8","81.1","30.09","155","1.9","4","0.00","0.00"
"00:49:56","68.7","62.8","81.5","30.08","148","2.9","7","0.00","0.00"
"00:54:57","68.6","62.9","82","30.08","129","2.1","7","0.00","0.00"
"00:59:57","68.6","62.9","82","30.08","145","3.1","6.9","0.00","0.00"
"01:04:59","68.6","62.9","82","30.07","146","2.7","7","0.00","0.00"
"01:09:56","68.6","62.9","82","30.07","128","2.4","5","0.00","0.00"
"01:14:58","68.6","62.9","82","30.07","149","2.1","4","0.00","0.00"
"01:19:56","68.6","62.9","82.2","30.06","140","2.9","6","0.00","0.00"
"01:24:56","68.5","63","82.6","30.06","132","2.5","6","0.00","0.00"
"01:29:58","68.4","63.1","83.3","30.06","154","2.9","6","0.00","0.00"
"01:34:59","68.3","63.3","84","30.06","168","2.5","6","0.00","0.00"
"01:39:58","68.3","63.3","84","30.06","172","1.2","3.5","0.00","0.00"
"01:44:58","68.2","63.2","84","30.06","162","1.8","4","0.00","0.00"
"01:49:59","68.2","63.2","84.2","30.06","162","1.6","6","0.00","0.00"
"01:54:56","68.1","63.4","85","30.06","147","2","5.8","0.00","0.00"
"01:59:57","68.1","63.4","85","30.06","154","2","4.6","0.00","0.00"
"02:04:58","68.1","63.5","85.3","30.06","181","2.3","4","0.00","0.00"
"02:09:59","68","63.7","86","30.06","165","2.1","4","0.00","0.00"
"02:14:58","68","63.7","86","30.06","152","1.6","5","0.00","0.00"
"02:19:59","67.9","63.6","86","30.06","157","0.9","5","0.00","0.00"
"02:24:56","67.8","63.5","86","30.06","176","1.2","4.6","0.00","0.00"
"02:29:57","67.7","63.4","86","30.06","166","1.5","4","0.00","0.00"
"02:34:58","67.7","63.6","86.7","30.06","148","1.5","3.5","0.00","0.00"
"02:39:57","67.7","63.7","87","30.06","129","1.3","5","0.00","0.00"
"02:44:58","67.7","63.7","87","30.06","116","1.5","4.6","0.00","0.00"
"02:49:59","67.6","63.6","87","30.06","121","1.7","4","0.00","0.00"
"02:54:56","67.6","63.6","87","30.06","128","2.5","6","0.00","0.00"
"02:59:57","67.6","63.9","88","30.06","140","2","5","0.00","0.00"
"03:04:58","67.4","64","88.8","30.06","136","1.5","3.5","0.00","0.00"
"03:09:59","67.2","64.1","89.6","30.06","136","1.9","5","0.00","0.00"
"03:14:58","67.1","64.2","90.4","30.06","127","1.6","4","0.00","0.00"
"03:19:59","66.9","64.2","91","30.05","120","1.1","3.5","0.00","0.00"
"03:24:56","66.8","64.1","91","30.05","120","0.8","3.5","0.00","0.00"
"03:29:58","66.8","64.1","91","30.05","103","1.8","5","0.00","0.00"
"03:34:59","66.7","64","91","30.04","100","0.8","3.5","0.00","0.00"
"03:39:58","66.6","64","91.4","30.04","116","1.7","5","0.00","0.00"
"03:44:57","66.5","64.1","92","30.04","131","2.5","5","0.00","0.00"
"03:49:58","66.4","64","92","30.04","118","2.2","5","0.00","0.00"
"03:54:52","66.2","64","92.5","30.04","109","1.9","5","0.00","0.00"
"03:59:57","66.1","64","93","30.05","118","2.2","4.6","0.00","0.00"
"04:04:59","66","63.9","93.2","30.05","115","2.1","4","0.00","0.00"
"04:09:56","65.9","64.1","94","30.05","117","1.5","4","0.00","0.00"
"04:14:56","65.8","64","94","30.05","125","1.6","4","0.00","0.00"
"04:19:57","65.8","64","94","30.03","118","2","4","0.00","0.00"
"04:24:58","65.8","64","94","30.03","121","1","3.5","0.00","0.00"
"04:29:59","65.8","64.2","94.6","30.04","121","1.1","3.5","0.00","0.00"
"04:34:56","65.7","64.2","95","30.04","121","1.2","3.5","0.00","0.00"
"04:39:59","65.7","64.2","95","30.04","127","0.9","4","0.00","0.00"
"04:44:57","65.7","64.2","95","30.04","147","1.5","3.5","0.00","0.00"
"04:49:58","65.7","64.2","95","30.04","148","1.6","4","0.00","0.00"
"04:54:59","65.7","64.2","95","30.04","144","1","3.5","0.00","0.00"
"04:59:57","65.7","64.2","95","30.04","144","1","4","0.00","0.00"
"05:04:59","65.7","64.2","95","30.04","134","0.8","4","0.00","0.00"
"05:09:56","65.7","64.2","95","30.04","111","0.8","3.5","0.00","0.00"
"05:14:59","65.7","64.3","95.5","30.04","110","0.5","2.3","0.00","0.00"
"05:19:57","65.8","64.6","96","30.04","110","0.5","2.3","0.00","0.00"
"05:24:59","65.8","64.6","96","30.04","110","0.4","2.3","0.00","0.00"
"05:29:56","65.8","64.6","96","30.04","8","1","2.3","0.00","0.00"
"05:34:57","65.8","64.6","96","30.03","75","1.3","4","0.00","0.00"
"05:39:52","65.8","64.6","96","30.03","99","1.8","4","0.00","0.00"
"05:44:58","65.9","64.7","96","30.03","83","0.9","4","0.00","0.00"
"05:49:59","65.9","64.7","96","30.03","131","1","4","0.00","0.00"
"05:54:56","66","64.8","96","30.03","146","1.1","4","0.00","0.00"
"05:59:57","66","64.8","96","30.03","149","1.4","3.5","0.00","0.00"
"06:04:59","66.1","64.9","96","30.03","152","0.8","4","0.00","0.00"
"06:09:57","66.1","64.9","96","30.03","148","1.2","3.5","0.00","0.00"
"06:14:57","66.2","65","96","30.03","183","1.6","5","0.00","0.00"
"06:19:58","66.2","65","96","30.03","154","1.2","4","0.00","0.00"
"06:24:58","66.3","65.1","96","30.03","143","1","3","0.00","0.00"
"06:29:58","66.4","65.2","96","30.03","144","0.4","2.3","0.00","0.00"
"06:34:58","66.4","65.2","96","30.03","144","0.5","3","0.00","0.00"
"06:39:58","66.4","65.2","96","30.03","144","0.9","2.3","0.00","0.00"
"06:44:59","66.5","65.3","96","30.03","144","0.6","2.3","0.00","0.00"
"06:49:59","66.5","65.3","96","30.03","144","0.9","2.3","0.00","0.00"
"06:54:56","66.5","65.5","96.5","30.03","144","0.3","3","0.00","0.00"
"06:59:57","66.5","65.6","97","30.03","144","1.2","3.5","0.00","0.00"
"07:04:58","66.6","65.7","97","30.03","144","1","2.3","0.00","0.00"
"07:09:59","66.6","65.7","97","30.03","144","0.4","4","0.00","0.00"
"07:14:58","66.7","65.8","97","30.03","144","1.1","3.5","0.00","0.00"
"07:19:58","66.7","65.8","97","30.03","144","0.3","1.2","0.00","0.00"
"07:24:59","66.8","65.9","97","30.03","144","1","3.5","0.00","0.00"
"07:29:59","66.9","66","97","30.03","144","0.9","3.5","0.00","0.00"
"07:34:59","67","66.1","97","30.03","144","0.9","3.5","0.00","0.00"
"07:39:58","67.1","66.2","97","30.03","144","0","2.3","0.00","0.00"
"07:44:59","67.2","66.3","97","30.03","144","1.1","3.5","0.00","0.00"
"07:49:59","67.3","66.4","97","30.03","144","0.8","3","0.00","0.00"
"07:54:57","67.4","66.5","97","30.03","144","0.4","2.3","0.00","0.00"
"07:59:56","67.5","66.6","97","30.03","144","0.6","3.5","0.00","0.00"
"08:04:58","67.5","66.6","96.8","30.03","145","0.9","3.5","0.00","0.00"
"08:09:58","67.6","66.5","96.2","30.03","145","1.1","3.5","0.00","0.00"
"08:14:53","67.7","66.7","96.5","30.03","143","1.3","3.5","0.00","0.00"
"08:19:58","68","67.1","97","30.03","149","1.1","5","0.00","0.00"
"08:24:58","68.4","67.5","97","30.03","158","1","3.5","0.00","0.00"
"08:29:59","68.6","67.5","96.1","30.03","155","1","3.5","0.00","0.00"
"08:34:56","68.9","67.7","96","30.03","155","1.4","4","0.00","0.00"
"08:39:58","69","67.6","95.5","30.03","162","2","4","0.00","0.00"
"08:44:58","69","67.5","95","30.04","146","1.9","4","0.00","0.00"
"08:49:58","69.2","67.8","95.2","30.04","162","1.5","4","0.00","0.00"
"08:54:59","69.6","68.1","95.3","30.04","147","1.6","3.5","0.00","0.00"
"08:59:59","69.9","68.3","94.7","30.04","148","1.2","3.5","0.00","0.00"
"09:04:49","70.1","68.3","94","30.04","166","2.4","6","0.00","0.00"
"09:09:57","70.4","68.6","94","30.04","184","2.3","5.8","0.00","0.00"
"09:14:56","70.8","68.7","93","30.04","181","2","5","0.00","0.00"
"09:19:56","71.4","69.1","92.4","30.04","163","2.8","7","0.00","0.00"
"09:24:48","71.8","68.9","90.6","30.04","174","3.4","7","0.00","0.00"
"09:29:59","72.2","69","89.6","30.04","206","3.5","7","0.00","0.00"
"09:34:58","72.4","68.6","88.1","30.03","178","3.3","6.9","0.00","0.00"
"09:39:56","72.3","68.5","87.9","30.03","182","2.8","7","0.00","0.00"
"09:44:57","72.4","68.8","88.5","30.03","178","2.1","5","0.00","0.00"
"09:49:58","72.5","68.5","87.5","30.03","184","3.1","7","0.00","0.00"
"09:54:59","72.7","69","88.1","30.03","186","2","6","0.00","0.00"
"09:59:59","73.1","69.3","88.1","30.03","197","2.2","6","0.00","0.00"
"10:04:56","73.3","69.4","87.5","30.03","176","2.2","5","0.00","0.00"
"10:09:56","73.6","69.6","87.5","30.03","184","3","6","0.00","0.00"
"10:14:58","73.7","69.4","86.3","30.03","182","2.7","8","0.00","0.00"
"10:19:59","73.9","69.8","87","30.03","205","2.4","8.1","0.00","0.00"
"10:24:56","74.3","70.1","86.6","30.03","196","2.9","5","0.00","0.00"
"10:29:56","74.7","70","85.4","30.03","181","3.2","7","0.00","0.00"
"10:34:57","74.8","69.7","84.3","30.03","183","3.3","6","0.00","0.00"
"10:39:56","74.9","70.1","85.1","30.03","194","2.2","6","0.00","0.00"
"10:44:56","75","69.7","83.7","30.03","202","3","6","0.00","0.00"
"10:49:57","75.2","70.2","84.6","30.03","189","2.6","6","0.00","0.00"
"10:54:58","75.5","70.3","83.8","30.03","178","2.6","6","0.00","0.00"
"10:59:58","75.8","70.1","82.7","30.03","191","3","6","0.00","0.00"
"11:04:56","76.2","70.8","83.4","30.03","176","2.6","9","0.00","0.00"
"11:09:56","76.8","70.9","82.2","30.03","212","2.2","9.2","0.00","0.00"
"11:14:59","77.4","71.6","82.2","30.03","184","2.2","5","0.00","0.00"
"11:19:59","78.1","71.1","79.1","30.02","195","3.8","7","0.00","0.00"
"11:24:56","78.4","71.4","79.2","30.02","185","3","7","0.00","0.00"
"11:29:58","78.8","71.5","78.2","30.02","188","3.8","11.5","0.00","0.00"
"11:34:57","78.9","71.1","76.9","30.02","197","3.4","6.9","0.00","0.00"
"11:39:59","79","71.1","76.7","30.02","186","4.1","10","0.00","0.00"
"11:44:58","79","71.3","77.1","30.02","199","3.6","10.4","0.00","0.00"
"11:49:57","79.1","71","76.2","30.01","190","3.7","9.2","0.00","0.00"
"11:54:57","79","70.7","75.6","30.01","197","3.3","9.2","0.00","0.00"
"11:59:56","79.2","71.1","76.2","30.01","188","2.9","6","0.00","0.00"
"12:04:49","79.6","71.2","75.5","30.01","180","2.9","7","0.00","0.00"
"12:09:57","79.6","70.8","74.5","30.01","185","3.5","6","0.00","0.00"
"12:14:58","79.5","71","75.2","30.01","207","3.3","6","0.00","0.00"
"12:19:58","79.5","70.9","74.9","30.01","180","3.2","6","0.00","0.00"
"12:24:57","80","72","76.6","30.01","199","2.7","6","0.00","0.00"
"12:29:57","80.5","71.3","73.9","30.01","183","2.6","5","0.00","0.00"
"12:34:56","80.7","71.7","74.2","30.01","169","3.6","10","0.00","0.00"
"12:39:58","80.7","71.4","73.5","30.01","177","3.6","6","0.00","0.00"
"12:44:58","81","72.2","74.7","30.01","182","2.7","5","0.00","0.00"
"12:49:57","81.4","71.1","71.2","30.00","148","2.7","6","0.00","0.00"
"12:54:56","81.3","71.3","71.7","30.00","175","3.5","9.2","0.00","0.00"
"12:59:59","81","70.7","70.9","30.00","143","3.7","12","0.00","0.00"
"13:04:56","80.8","70.6","71.3","30.00","176","2.8","5","0.00","0.00"
"13:09:56","80.9","71.1","72.2","30.00","176","3.1","7","0.00","0.00"
"13:14:54","81.2","71.3","72","30.00","189","4.2","11","0.00","0.00"
"13:19:57","81.6","71.3","71.1","29.99","197","4.4","9.2","0.00","0.00"
"13:24:57","81.4","70.4","69.4","29.99","143","2.5","5","0.00","0.00"
"13:29:56","81.3","70.5","69.7","29.99","165","3.1","10.4","0.00","0.00"
"13:34:55","81","70.1","69.3","29.99","175","3.3","7","0.00","0.00"
"13:39:57","80.7","70.2","70.5","29.99","167","2.7","6.9","0.00","0.00"
"13:44:56","80.8","70","69.8","29.99","159","3","7","0.00","0.00"
"13:49:58","81","70.7","71","29.99","178","4.2","10.4","0.00","0.00"
"13:54:57","81.4","70.8","70.2","29.99","193","4","11.5","0.00","0.00"
"13:59:56","81.7","70.9","69.8","29.99","202","4.2","7","0.00","0.00"
"14:04:57","81.7","70.3","68.6","29.98","181","3.5","10.4","0.00","0.00"
"14:09:57","81.7","70.1","68.2","29.98","191","4.1","9.2","0.00","0.00"
"14:14:58","81.8","70.6","68.9","29.98","196","3.3","6","0.00","0.00"
"14:19:57","82.3","71.1","69","29.97","207","3.3","7","0.00","0.00"
"14:24:56","82.7","71.1","68","29.97","205","2.2","5.8","0.00","0.00"
"14:29:59","82.9","70.5","66.4","29.97","177","3.5","11.5","0.00","0.00"
"14:34:59","83","71.5","68.3","29.97","205","3.6","8.1","0.00","0.00"
"14:39:57","83.3","70.7","65.9","29.97","194","2.7","6","0.00","0.00"
"14:44:57","83.5","71.3","67","29.97","184","2.7","7","0.00","0.00"
"14:49:59","83.7","71.1","66.1","29.96","200","4","9","0.00","0.00"
"14:54:59","83.4","70.4","64.9","29.96","173","4.2","9.2","0.00","0.00"
"14:59:58","83.4","71.6","67.7","29.96","175","2.4","6","0.00","0.00"
"15:04:59","83.7","71","65.7","29.95","158","4.1","11","0.00","0.00"
"15:09:58","83.7","70.4","64.4","29.95","179","5","13","0.00","0.00"
"15:14:59","83.1","70.1","65.1","29.95","155","3.6","11","0.00","0.00"
"15:19:58","82.7","69.9","65.4","29.94","177","3.9","11.5","0.00","0.00"
"15:24:58","82.5","70.1","66.4","29.94","206","4.4","9.2","0.00","0.00"
"15:29:57","82.2","70.2","67.2","29.94","184","4.6","9.2","0.00","0.00"
"15:34:56","82","70.7","68.7","29.94","162","3","6","0.00","0.00"
"15:39:58","82","70.6","68.7","29.94","175","4.6","12","0.00","0.00"
"15:44:57","82.2","70.8","68.4","29.94","157","4.2","7","0.00","0.00"
"15:49:56","82.6","71.1","68.2","29.94","176","3.8","10.4","0.00","0.00"
"15:54:56","82.9","71","67.5","29.94","184","3.5","10","0.00","0.00"
"15:59:59","83","71","67.1","29.94","180","3.7","9.2","0.00","0.00"
"16:04:59","82.7","70.6","66.9","29.94","156","4.1","9.2","0.00","0.00"
"16:09:58","82.2","70.4","67.6","29.94","163","3.8","11","0.00","0.00"
"16:14:56","81.7","70.4","68.7","29.94","181","4.2","11.5","0.00","0.00"
"16:19:59","81.6","69.9","67.8","29.93","186","4.5","11.5","0.00","0.00"
"16:24:58","81.4","69.9","68.1","29.93","175","3.9","11.5","0.00","0.00"
"16:29:58","81.3","69.3","66.9","29.93","176","4","7","0.00","0.00"
"16:34:57","81.2","69","66.5","29.92","186","3.4","6.9","0.00","0.00"
"16:39:59","81.1","69.1","67","29.92","170","2.6","6","0.00","0.00"
"16:44:58","81","68.9","66.6","29.92","179","2.8","6","0.00","0.00"
"16:49:57","80.8","68.5","66.2","29.92","179","3.1","11","0.00","0.00"
"16:54:57","80.6","68.3","66.3","29.92","182","4","6","0.00","0.00"
"16:59:56","80.4","68.1","66.5","29.93","186","3.9","7","0.00","0.00"
"17:04:57","80.2","68.5","67.6","29.93","180","3.3","7","0.00","0.00"
"17:09:57","80.1","68.6","68","29.93","179","1.4","5","0.00","0.00"
"17:14:59","80","68.7","68.3","29.94","202","1.4","4","0.00","0.00"
"17:19:59","79.5","68.9","69.9","29.94","330","2.6","7","0.00","0.00"
"17:24:56","78","68.4","72.6","29.94","315","2.1","6","0.00","0.00"
"17:29:56","76.4","67.9","74.8","29.96","345","1.7","5","0.00","0.00"
"17:34:57","75.3","67.7","77.3","29.96","341","1.9","6","0.00","0.00"
"17:39:56","74.6","67.4","78.4","29.96","345","1.2","4.6","0.00","0.00"
"17:44:57","74.2","67.4","79.3","29.96","344","0.7","3.5","0.00","0.00"
"17:49:58","74","67.5","80.3","29.95","344","0.2","2","0.00","0.00"
"17:54:59","74","67.9","81.2","29.95","344","0.1","1.2","0.00","0.00"
"17:59:56","74","67.4","80.1","29.95","344","0.6","2.3","0.00","0.00"
"18:04:58","73.9","67.8","81.2","29.94","352","0.6","4","0.00","0.00"
"18:09:59","74","68.1","81.5","29.94","88","1.1","3.5","0.00","0.00"
"18:14:59","74.2","68","81.1","29.94","111","1.8","5","0.00","0.00"
"18:19:55","74.5","68.5","81.9","29.93","130","0.9","3.5","0.00","0.00"
"18:24:57","74.7","68.9","82.1","29.93","173","1.1","4","0.00","0.00"
"18:29:57","75.1","69.2","82.1","29.93","159","2.5","6","0.00","0.00"
"18:34:57","75.3","69.5","82.4","29.93","141","2.1","6","0.00","0.00"
"18:39:56","75.4","69.7","82.6","29.93","172","1.4","4.6","0.00","0.00"
"18:44:56","75.4","69.9","83","29.93","197","0.7","2.3","0.00","0.00"
"18:49:57","75.5","70","83","29.93","252","0.5","3.5","0.00","0.00"
"18:54:58","75.6","69.9","82.5","29.93","269","0.8","2.3","0.00","0.00"
"18:59:58","75.6","70","82.7","29.93","269","0.7","2","0.00","0.00"
"19:04:59","75.6","70","82.8","29.93","258","1.6","5","0.00","0.00"
"19:09:56","75.5","69.7","82.2","29.93","188","1.9","7","0.00","0.00"
"19:14:59","75.3","69.3","81.4","29.93","199","3.8","7","0.00","0.00"
"19:19:56","75.1","69.1","81.6","29.93","168","1.4","4","0.00","0.00"
"19:24:56","75","69","81.7","29.93","185","2.5","6","0.00","0.00"
"19:29:56","74.6","68.4","81.2","29.94","160","3.1","7","0.00","0.00"
"19:34:57","74","68.2","82","29.94","164","3.8","7","0.00","0.00"
"19:39:59","73.4","67.8","82.8","29.94","156","3.1","5","0.00","0.00"
"19:44:59","72.9","67.7","83.8","29.94","153","2.6","7","0.00","0.00"
"19:49:59","72.4","67.6","84.8","29.94","149","2.6","7","0.00","0.00"
"19:54:59","72.1","67.3","85","29.94","163","2","6","0.00","0.00"
"19:59:59","71.9","67.4","85.8","29.95","169","2.8","7","0.00","0.00"
"20:04:56","71.6","67.2","85.9","29.95","182","3.6","7","0.00","0.00"
"20:09:56","71.3","66.9","86","29.95","178","3.2","6","0.00","0.00"
"20:14:56","71.1","66.7","86","29.96","187","2.9","6","0.00","0.00"
"20:19:57","70.9","66.6","86.3","29.96","174","3.5","6","0.00","0.00"
"20:24:58","70.8","66.7","87","29.96","187","3.9","9.2","0.00","0.00"
"20:29:58","70.6","66.5","87","29.97","161","3.2","10.4","0.00","0.00"
"20:34:58","70.6","66.6","87.4","29.97","192","2.7","9","0.00","0.00"
"20:39:58","70.5","66.8","88","29.97","173","2.3","6","0.00","0.00"
"20:44:56","70.5","66.8","88","29.97","188","3.4","7","0.00","0.00"
"20:49:57","70.4","66.7","88","29.97","194","1.7","5.8","0.00","0.00"
"20:54:59","70.3","66.6","88","29.97","193","2.6","7","0.00","0.00"
"20:59:57","70.2","66.5","88","29.97","186","2.5","5","0.00","0.00"
"21:04:59","70.1","66.4","88","29.96","159","1.5","5","0.00","0.00"
"21:09:57","70","66.3","88","29.96","204","1.1","3.5","0.00","0.00"
"21:14:57","69.9","66.4","88.7","29.97","204","0.5","2.3","0.00","0.00"
"21:19:56","69.8","66.4","89","29.97","204","0.2","2.3","0.00","0.00"
"21:24:59","69.7","66.3","89","29.97","204","0","1","0.00","0.00"
"21:29:57","69.6","66.2","89","29.97","204","0.1","1.2","0.00","0.00"
"21:34:58","69.4","66","89","29.97","204","0.4","2.3","0.00","0.00"
"21:39:58","69.3","66.1","89.7","29.97","204","0.2","2","0.00","0.00"
"21:44:56","69.3","66.2","90","29.97","187","1.3","3.5","0.00","0.00"
"21:49:57","69.2","66.2","90.3","29.96","168","1.1","3","0.00","0.00"
"21:54:58","69.2","66.5","91","29.96","163","1.4","3.5","0.00","0.00"
"21:59:58","69.2","66.5","91","29.97","159","2","6","0.00","0.00"
"22:04:56","69.2","66.6","91.3","29.97","170","2.1","4","0.00","0.00"
"22:09:58","69.1","66.6","91.4","29.97","177","0.9","3.5","0.00","0.00"
"22:14:57","69.1","66.7","91.9","29.97","159","1.6","5","0.00","0.00"
"22:19:59","69.1","66.7","92","29.97","153","1.7","4","0.00","0.00"
"22:24:57","69","66.6","92","29.97","164","1.4","4","0.00","0.00"
"22:29:58","69","66.6","92","29.97","207","1.8","5","0.00","0.00"
"22:34:59","69","66.6","92","29.97","202","1.3","3.5","0.00","0.00"
"22:39:59","69","66.8","92.8","29.97","191","1.9","5","0.00","0.00"
"22:44:56","69","66.9","93","29.97","181","1.8","4","0.00","0.00"
"22:49:58","69.1","67","93","29.96","164","1.7","7","0.00","0.00"
"22:54:59","69.1","67","93","29.96","204","2.9","6","0.00","0.00"
"22:59:56","69.2","67.1","93","29.97","196","2","4.6","0.00","0.00"
"23:04:58","69.2","67.1","93","29.97","196","1.8","4","0.00","0.00"
"23:09:59","69.2","67.1","93","29.97","182","2.1","5","0.00","0.00"
"23:14:58","69.3","67.3","93.4","29.97","252","1.7","4","0.00","0.00"
"23:19:59","69.4","67.5","93.8","29.97","236","2.1","4","0.00","0.00"
"23:24:56","69.5","67.7","94","29.97","220","1.7","5","0.00","0.00"
"23:29:57","69.6","67.8","94","29.97","237","1.1","4","0.00","0.00"
"23:34:58","69.6","67.7","93.4","29.97","242","0.6","2.3","0.00","0.00"
"23:39:57","69.7","67.6","93","29.97","242","0.7","3.5","0.00","0.00"
"23:44:58","69.8","67.7","93","29.97","201","1.9","6","0.00","0.00"
"23:49:59","69.8","67.7","93","29.97","195","1","3.5","0.00","0.00"
"23:54:57","69.9","67.8","93","29.97","162","1.4","4","0.00","0.00"
"23:59:58","70","67.9","93","29.97","189","2.9","7","0.00","0.00"
